Naples, Italy

3:24 PM CEST on October 01, 2016 (GMT +0200)
Capodichino Mil

Weather History for LIRN - March, 2013

Change the Weather History Date:

Friday, March 22, 2013

  Actual Average Record
Temperature  
Mean Temperature 51 °F -  
Max Temperature 60 °F 58 °F 73 °F (2016)
Min Temperature 42 °F 44 °F 33 °F (1998)
Degree Days  
Heating Degree Days 14    
Growing Degree Days 1 (Base 50)    
Moisture  
Dew Point 45 °F    
Average Humidity 75    
Maximum Humidity 93    
Minimum Humidity 59    
Precipitation  
Precipitation 0.00 in - - ()
Sea Level Pressure  
Sea Level Pressure 29.91 in    
Wind  
Wind Speed 4 mph ()    
Max Wind Speed 14 mph    
Max Gust Speed -    
Visibility 6.1 miles    
Events      
Averages and records for this station are not official NWS values.
T = Trace of Precipitation, MM = Missing Value Source: Averaged Metar Reports

Daily Weather History Graph

Daily Weather History Graph

Search for Another Location

Airport or City:

Trip Planner

Search our weather history database for the weather conditions in past years. The results will help you decide how hot, cold, wet, or windy it might be!

Date:

Astronomy

Mar. 22, 2013 Rise Set
Actual Time 6:02 AM CET 6:17 PM CET
Civil Twilight 5:35 AM CET 6:44 PM CET
Nautical Twilight 5:03 AM CET 7:16 PM CET
Astronomical Twilight 4:30 AM CET 7:49 PM CET
Moon 1:25 PM CET (3/22) 2:54 AM CET (3/22)
Length of Visible Light 13h 08m
Length of Day
12h 14m
Waxing Gibbous, 75% of the Moon is Illuminated
Mar 22
Waxing Gibbous
Mar 27
Full
Apr 3
Last Quarter
Apr 10
New
Apr 18
First Quarter

Hourly Weather History & Observations

Time (CET) Temp. Windchill Dew Point Humidity Pressure Visibility Wind Dir Wind Speed Gust Speed Precip Events Conditions
12:20 AM 50.0 °F - 44.6 °F 82% 29.95 in - ESE 2.3 mph - N/A   Clear
12:50 AM 48.2 °F - 44.6 °F 87% 29.95 in - North 3.5 mph - N/A   Clear
1:20 AM 46.4 °F 45.2 °F 42.8 °F 87% 29.95 in - North 3.5 mph - N/A   Clear
1:50 AM 42.8 °F 41.1 °F 39.2 °F 87% 29.92 in - NW 3.5 mph - N/A   Clear
2:20 AM 46.4 °F 45.2 °F 42.8 °F 87% 29.92 in - WNW 3.5 mph - N/A   Clear
2:50 AM 44.6 °F - 39.2 °F 81% 29.92 in - NW 2.3 mph - N/A   Clear
3:20 AM 44.6 °F - 42.8 °F 93% 29.89 in - Calm Calm - N/A   Clear
3:50 AM 42.8 °F - 39.2 °F 87% 29.89 in - NNE 2.3 mph - N/A   Clear
4:20 AM 44.6 °F 43.1 °F 37.4 °F 76% 29.89 in - NE 3.5 mph - N/A   Clear
4:50 AM 42.8 °F - 37.4 °F 81% 29.89 in - Variable 2.3 mph - N/A   Clear
5:20 AM 42.8 °F - 37.4 °F 81% 29.89 in - West 2.3 mph - N/A   Clear
5:50 AM 42.8 °F 41.1 °F 37.4 °F 81% 29.89 in - WSW 3.5 mph - N/A   Clear
6:20 AM 42.8 °F - 37.4 °F 81% 29.89 in - Calm Calm - N/A   Clear
6:50 AM 46.4 °F - 39.2 °F 76% 29.89 in - Calm Calm - N/A   Clear
7:20 AM 53.6 °F - 42.8 °F 67% 29.92 in - Variable 1.2 mph - N/A   Clear
7:50 AM 51.8 °F - 42.8 °F 71% 29.92 in - East 3.5 mph - N/A   Clear
8:20 AM 51.8 °F - 44.6 °F 76% 29.92 in - NE 4.6 mph - N/A   Clear
8:50 AM 55.4 °F - 44.6 °F 67% 29.92 in - SE 3.5 mph - N/A   Clear
9:20 AM 57.2 °F - 46.4 °F 67% 29.92 in - West 6.9 mph - N/A   Clear
9:50 AM 57.2 °F - 44.6 °F 63% 29.92 in 6.2 mi West 6.9 mph - N/A   Partly Cloudy
10:20 AM 57.2 °F - 44.6 °F 63% 29.92 in 6.2 mi WSW 6.9 mph - N/A   Partly Cloudy
10:50 AM 59.0 °F - 46.4 °F 63% 29.89 in 6.2 mi South 8.1 mph - N/A   Partly Cloudy
11:20 AM 59.0 °F - 48.2 °F 67% 29.89 in 6.2 mi Variable 8.1 mph - N/A   Partly Cloudy
11:50 AM 60.8 °F - 46.4 °F 59% 29.89 in 6.2 mi South 9.2 mph - N/A   Partly Cloudy
12:20 PM 59.0 °F - 48.2 °F 67% 29.89 in 6.2 mi South 11.5 mph - N/A   Partly Cloudy
12:50 PM 59.0 °F - 46.4 °F 63% 29.89 in 6.2 mi South 13.8 mph - N/A   Partly Cloudy
1:20 PM 59.0 °F - 46.4 °F 63% 29.89 in 6.2 mi South 11.5 mph - N/A   Partly Cloudy
1:50 PM 59.0 °F - 46.4 °F 63% 29.89 in 6.2 mi South 11.5 mph - N/A   Partly Cloudy
2:20 PM 59.0 °F - 46.4 °F 63% 29.89 in 6.2 mi South 9.2 mph - N/A   Partly Cloudy
2:50 PM 60.8 °F - 48.2 °F 63% 29.89 in 6.2 mi South 8.1 mph - N/A   Partly Cloudy
3:20 PM 59.0 °F - 48.2 °F 67% 29.89 in 6.2 mi South 10.4 mph - N/A   Partly Cloudy
3:50 PM 59.0 °F - 48.2 °F 67% 29.89 in 6.2 mi South 9.2 mph - N/A   Partly Cloudy
4:20 PM 59.0 °F - 46.4 °F 63% 29.89 in 6.2 mi South 8.1 mph - N/A   Partly Cloudy
4:50 PM 59.0 °F - 48.2 °F 67% 29.89 in 6.2 mi South 9.2 mph - N/A   Partly Cloudy
5:20 PM 57.2 °F - 48.2 °F 72% 29.89 in 6.2 mi SSW 8.1 mph - N/A   Partly Cloudy
5:50 PM 57.2 °F - 48.2 °F 72% 29.89 in 6.2 mi South 5.8 mph - N/A   Partly Cloudy
6:20 PM 55.4 °F - 48.2 °F 77% 29.89 in 6.2 mi SSW 4.6 mph - N/A   Partly Cloudy
6:50 PM 55.4 °F - 48.2 °F 77% 29.92 in 6.2 mi South 3.5 mph - N/A   Partly Cloudy
7:20 PM 55.4 °F - 48.2 °F 77% 29.92 in 6.2 mi South 3.5 mph - N/A   Partly Cloudy
7:50 PM 55.4 °F - 48.2 °F 77% 29.92 in 6.2 mi South 2.3 mph - N/A   Partly Cloudy
8:20 PM 53.6 °F - 48.2 °F 82% 29.92 in 6.2 mi Calm Calm - N/A   Partly Cloudy
8:50 PM 51.8 °F - 48.2 °F 88% 29.92 in 6.2 mi Calm Calm - N/A   Partly Cloudy
9:20 PM 51.8 °F - 48.2 °F 88% 29.92 in 6.2 mi ENE 2.3 mph - N/A   Partly Cloudy
9:50 PM 51.8 °F - 48.2 °F 88% 29.92 in 6.2 mi ENE 2.3 mph - N/A   Partly Cloudy
10:20 PM 51.8 °F - 46.4 °F 82% 29.92 in 6.2 mi Variable 1.2 mph - N/A   Partly Cloudy
10:50 PM 48.2 °F - 44.6 °F 87% 29.92 in 5.0 mi Calm Calm - N/A   Partly Cloudy
11:20 PM 50.0 °F - 46.4 °F 87% 29.92 in 5.0 mi Calm Calm - N/A   Unknown
11:50 PM 48.2 °F - 44.6 °F 87% 29.95 in 5.0 mi Variable 1.2 mph - N/A   Unknown